QPF
0.01 0.01 0.01 0.01 0.01 0.01 0.00 0.01 0.01 0.02 0.03 0.05 0.07 0.09 0.07 0.04 0.03 0.03 0.02 0.02 0.03 0.02 0.02 0.02 0.04 0.04 0.04 0.05 0.05 0.07 0.10 0.10 0.11 0.11 0.11 0.10 0.08 0.08 0.09 0.10 0.09 0.06 0.05 0.04
0.01 0.01 0.01 0.01 0.01 0.00 0.01 0.01 0.01 0.02 0.03 0.04 0.08 0.07 0.05 0.04 0.03 0.03 0.02 0.01 0.02 0.02 0.01 0.01 0.02 0.02 0.02 0.03 0.03 0.04 0.05 0.05 0.05 0.07 0.11 0.12 0.12 0.10 0.09 0.10 0.08 0.05 0.04 0.03
0.01 0.00 0.01 0.01 0.01 0.01 0.01 0.01 0.01 0.02 0.02 0.03 0.04 0.08 0.06 0.03 0.03 0.03 0.02 0.01 0.01 0.01 0.02 0.02 0.02 0.02 0.02 0.02 0.03 0.03 0.02 0.03 0.03 0.04 0.06 0.08 0.12 0.17 0.15 0.11 0.07 0.05 0.04 0.03
0.01 0.01 0.01 0.01 0.01 0.01 0.01 0.01 0.01 0.01 0.01 0.02 0.02 0.03 0.02 0.01 0.02 0.02 0.01 0.01 0.01 0.01 0.01 0.02 0.02 0.02 0.02 0.03 0.02 0.03 0.03 0.02 0.03 0.05 0.07 0.08 0.13 0.15 0.14 0.11 0.08 0.06 0.04 0.04
0.02 0.01 0.02 0.01 0.01 0.02 0.04 0.03 0.02 0.02 0.01 0.01 0.01 0.01 0.02 0.02 0.02 0.02 0.02 0.01 0.01 0.01 0.01 0.01 0.02 0.02 0.03 0.05 0.04 0.03 0.05 0.08 0.10 0.12 0.12 0.11 0.08 0.06 0.07 0.08 0.08 0.07 0.04 0.03
0.02 0.02 0.01 0.01 0.01 0.01 0.01 0.03 0.02 0.02 0.04 0.02 0.02 0.02 0.02 0.02 0.02 0.02 0.01 0.01 0.01 0.01 0.00 0.01 0.01 0.02 0.02 0.04 0.06 0.07 0.07 0.09 0.14 0.16 0.10 0.08 0.06 0.03 0.04 0.06 0.07 0.09 0.08 0.07
0.02 0.02 0.01 0.01 0.01 0.01 0.02 0.03 0.02 0.02 0.02 0.02 0.02 0.02 0.02 0.02 0.01 0.01 0.01 0.02 0.02 0.01 0.01 0.01 0.01 0.01 0.01 0.02 0.04 0.07 0.07 0.07 0.09 0.10 0.08 0.07 0.07 0.08 0.07 0.05 0.05 0.05 0.04 0.06
0.03 0.03 0.03 0.02 0.01 0.02 0.02 0.05 0.05 0.03 0.02 0.02 0.02 0.02 0.02 0.02 0.01 0.01 0.01 0.01 0.01 0.01 0.01 0.01 0.01 0.01 0.01 0.01 0.03 0.06 0.07 0.06 0.04 0.05 0.05 0.05 0.04 0.04 0.04 0.04 0.03 0.02 0.02 0.02
0.05 0.05 0.04 0.04 0.02 0.03 0.03 0.05 0.06 0.03 0.02 0.02 0.02 0.02 0.02 0.02 0.01 0.01 0.01 0.01 0.01 0.01 0.01 0.01 0.01 0.01 0.01 0.01 0.02 0.04 0.04 0.04 0.03 0.02 0.02 0.03 0.03 0.02 0.02 0.02 0.02 0.02 0.02 0.01
0.05 0.06 0.05 0.04 0.03 0.03 0.04 0.04 0.03 0.03 0.03 0.02 0.02 0.02 0.02 0.01 0.01 0.01 0.01 0.01 0.01 0.01 0.01 0.01 0.01 0.01 0.01 0.01 0.02 0.03 0.04 0.04 0.04 0.03 0.02 0.01 0.02 0.02 0.02 0.02 0.02 0.02 0.02 0.02
0.04 0.03 0.04 0.05 0.04 0.03 0.03 0.03 0.03 0.04 0.03 0.03 0.02 0.02 0.02 0.02 0.02 0.02 0.02 0.02 0.02 0.02 0.01 0.01 0.02 0.02 0.02 0.01 0.03 0.04 0.04 0.04 0.04 0.04 0.03 0.02 0.02 0.03 0.03 0.03 0.03 0.03 0.03 0.03
0.05 0.04 0.04 0.05 0.07 0.04 0.02 0.02 0.05 0.06 0.04 0.03 0.03 0.03 0.02 0.03 0.04 0.04 0.03 0.03 0.02 0.02 0.02 0.02 0.02 0.03 0.03 0.03 0.03 0.02 0.02 0.02 0.03 0.03 0.04 0.04 0.04 0.03 0.04 0.05 0.06 0.06 0.06 0.06
0.03 0.02 0.03 0.03 0.05 0.05 0.04 0.04 0.05 0.04 0.03 0.05 0.05 0.06 0.05 0.05 0.06 0.06 0.05 0.04 0.06 0.05 0.03 0.02 0.03 0.03 0.04 0.03 0.01 0.01 0.01 0.02 0.02 0.02 0.03 0.04 0.04 0.03 0.03 0.04 0.05 0.07 0.07 0.08
0.03 0.03 0.02 0.02 0.03 0.03 0.05 0.07 0.06 0.03 0.02 0.03 0.05 0.06 0.04 0.04 0.04 0.05 0.05 0.04 0.08 0.10 0.08 0.05 0.03 0.04 0.04 0.04 0.03 0.02 0.01 0.01 0.01 0.01 0.02 0.04 0.04 0.04 0.03 0.03 0.03 0.04 0.05 0.06
0.03 0.03 0.02 0.02 0.02 0.02 0.02 0.03 0.04 0.03 0.02 0.02 0.03 0.04 0.02 0.02 0.02 0.03 0.04 0.04 0.05 0.08 0.09 0.06 0.03 0.04 0.04 0.04 0.04 0.03 0.02 0.02 0.02 0.02 0.02 0.02 0.03 0.04 0.04 0.04 0.03 0.04 0.04 0.05
0.03 0.04 0.02 0.01 0.01 0.02 0.01 0.01 0.02 0.02 0.02 0.02 0.02 0.02 0.02 0.02 0.02 0.02 0.03 0.03 0.04 0.05 0.05 0.04 0.03 0.03 0.04 0.03 0.03 0.03 0.02 0.02 0.02 0.02 0.02 0.02 0.03 0.04 0.05 0.05 0.05 0.05 0.05 0.06
0.03 0.03 0.02 0.02 0.02 0.01 0.01 0.01 0.01 0.01 0.01 0.02 0.02 0.02 0.02 0.02 0.02 0.03 0.02 0.02 0.02 0.02 0.02 0.02 0.02 0.02 0.02 0.02 0.02 0.02 0.02 0.01 0.01 0.01 0.02 0.02 0.03 0.05 0.05 0.06 0.10 0.13 0.14 0.14
0.01 0.01 0.01 0.01 0.02 0.02 0.02 0.02 0.01 0.01 0.01 0.01 0.01 0.02 0.02 0.02 0.02 0.03 0.02 0.02 0.02 0.02 0.01 0.01 0.01 0.01 0.01 0.02 0.02 0.02 0.01 0.01 0.01 0.01 0.01 0.01 0.02 0.04 0.04 0.04 0.06 0.10 0.13 0.16
0.01 0.01 0.01 0.01 0.01 0.01 0.02 0.02 0.01 0.01 0.01 0.01 0.01 0.02 0.02 0.02 0.02 0.02 0.02 0.02 0.01 0.01 0.01 0.01 0.02 0.02 0.02 0.02 0.02 0.02 0.01 0.01 0.01 0.01 0.01 0.01 0.01 0.02 0.02 0.03 0.03 0.04 0.06 0.05
0.01 0.01 0.01 0.01 0.01 0.01 0.01 0.02 0.02 0.01 0.01 0.01 0.01 0.01 0.01 0.01 0.01 0.01 0.01 0.01 0.01 0.00 0.00 0.01 0.01 0.03 0.03 0.03 0.03 0.02 0.02 0.01 0.02 0.02 0.03 0.02 0.02 0.02 0.02 0.03 0.03 0.04 0.04 0.06
0.01 0.01 0.01 0.00 0.00 0.01 0.01 0.02 0.02 0.01 0.01 0.01 0.01 0.01 0.01 0.01 0.01 0.01 0.01 0.01 0.01 0.01 0.01 0.01 0.01 0.02 0.03 0.03 0.03 0.03 0.03 0.03 0.04 0.04 0.04 0.04 0.03 0.03 0.02 0.02 0.02 0.04 0.03 0.03
0.01 0.01 0.01 0.00 0.00 0.01 0.01 0.01 0.01 0.01 0.01 0.02 0.01 0.02 0.02 0.03 0.03 0.04 0.04 0.03 0.02 0.02 0.01 0.01 0.01 0.01 0.02 0.03 0.03 0.04 0.06 0.06 0.06 0.07 0.06 0.06 0.05 0.04 0.03 0.03 0.02 0.02 0.03 0.03
0.01 0.01 0.01 0.01 0.01 0.01 0.02 0.01 0.01 0.01 0.02 0.02 0.02 0.03 0.03 0.04 0.04 0.04 0.03 0.02 0.01 0.01 0.01 0.01 0.01 0.01 0.02 0.02 0.03 0.06 0.10 0.10 0.09 0.09 0.08 0.06 0.05 0.03 0.02 0.02 0.02 0.03 0.03 0.03
0.01 0.01 0.01 0.01 0.01 0.01 0.02 0.02 0.02 0.01 0.01 0.02 0.02 0.02 0.03 0.03 0.02 0.02 0.01 0.01 0.01 0.01 0.01 0.00 0.00 0.01 0.01 0.02 0.02 0.03 0.05 0.07 0.06 0.06 0.07 0.08 0.08 0.08 0.07 0.06 0.04 0.04 0.03 0.03
0.02 0.02 0.02 0.02 0.02 0.01 0.02 0.02 0.02 0.02 0.02 0.02 0.02 0.02 0.03 0.03 0.03 0.02 0.02 0.01 0.01 0.01 0.01 0.01 0.00 0.01 0.01 0.01 0.02 0.03 0.03 0.03 0.04 0.04 0.04 0.06 0.08 0.09 0.10 0.09 0.08 0.06 0.05 0.04
0.03 0.02 0.02 0.02 0.02 0.02 0.02 0.02 0.03 0.02 0.02 0.02 0.02 0.03 0.04 0.04 0.03 0.03 0.02 0.02 0.01 0.01 0.01 0.01 0.01 0.01 0.01 0.01 0.01 0.02 0.03 0.04 0.03 0.03 0.03 0.04 0.03 0.04 0.06 0.08 0.08 0.07 0.06 0.04
0.02 0.02 0.02 0.02 0.01 0.01 0.02 0.02 0.03 0.02 0.02 0.02 0.02 0.02 0.03 0.03 0.03 0.03 0.03 0.02 0.01 0.01 0.01 0.01 0.01 0.01 0.01 0.01 0.02 0.02 0.02 0.03 0.03 0.03 0.03 0.03 0.03 0.04 0.05 0.05 0.05 0.06 0.06 0.05
MSLP
1011.92 1012.07 1012.16 1012.25 1012.38 1012.57 1012.83 1013.13 1013.45 1013.75 1014.01 1014.25 1014.45 1014.65 1014.86 1015.11 1015.42 1015.78 1016.18 1016.59 1017.00 1017.36 1017.66 1017.89 1018.03 1018.10 1018.11 1018.06 1017.97 1017.83 1017.65 1017.41 1017.09 1016.70 1016.22 1015.65 1015.02 1014.34 1013.66 1013.00 1012.40 1011.87 1011.43 1011.08
1012.30 1012.35 1012.29 1012.17 1012.08 1012.06 1012.13 1012.31 1012.57 1012.91 1013.29 1013.69 1014.10 1014.51 1014.91 1015.31 1015.70 1016.10 1016.48 1016.85 1017.19 1017.49 1017.74 1017.94 1018.08 1018.17 1018.22 1018.22 1018.17 1018.07 1017.90 1017.66 1017.33 1016.89 1016.35 1015.72 1015.01 1014.25 1013.48 1012.73 1012.04 1011.44 1010.94 1010.55
1012.61 1012.59 1012.40 1012.13 1011.87 1011.68 1011.62 1011.72 1011.96 1012.33 1012.81 1013.36 1013.94 1014.51 1015.06 1015.57 1016.03 1016.44 1016.81 1017.12 1017.39 1017.63 1017.83 1017.99 1018.13 1018.24 1018.32 1018.35 1018.34 1018.26 1018.10 1017.85 1017.49 1017.01 1016.42 1015.72 1014.93 1014.10 1013.26 1012.44 1011.68 1011.01 1010.47 1010.03
1012.82 1012.73 1012.45 1012.09 1011.71 1011.43 1011.29 1011.33 1011.56 1011.98 1012.53 1013.18 1013.87 1014.57 1015.22 1015.80 1016.31 1016.72 1017.06 1017.33 1017.55 1017.73 1017.89 1018.03 1018.16 1018.28 1018.38 1018.43 1018.44 1018.37 1018.20 1017.93 1017.53 1017.01 1016.36 1015.60 1014.76 1013.87 1012.97 1012.10 1011.29 1010.59 1010.00 1009.54
1012.84 1012.70 1012.38 1011.96 1011.55 1011.22 1011.05 1011.08 1011.32 1011.75 1012.35 1013.06 1013.83 1014.59 1015.30 1015.92 1016.44 1016.86 1017.18 1017.42 1017.61 1017.76 1017.89 1018.02 1018.15 1018.28 1018.38 1018.44 1018.44 1018.36 1018.17 1017.86 1017.42 1016.85 1016.15 1015.34 1014.46 1013.53 1012.60 1011.70 1010.87 1010.15 1009.54 1009.06
1012.60 1012.43 1012.10 1011.69 1011.29 1010.98 1010.83 1010.87 1011.13 1011.58 1012.21 1012.94 1013.73 1014.52 1015.24 1015.88 1016.41 1016.83 1017.15 1017.38 1017.56 1017.70 1017.83 1017.96 1018.09 1018.21 1018.31 1018.36 1018.34 1018.23 1018.01 1017.66 1017.17 1016.56 1015.82 1014.97 1014.06 1013.11 1012.16 1011.25 1010.42 1009.69 1009.08 1008.60
1012.05 1011.89 1011.59 1011.23 1010.90 1010.65 1010.56 1010.65 1010.94 1011.42 1012.05 1012.78 1013.57 1014.35 1015.07 1015.71 1016.24 1016.66 1016.99 1017.23 1017.42 1017.57 1017.71 1017.84 1017.96 1018.07 1018.15 1018.17 1018.13 1017.98 1017.72 1017.33 1016.81 1016.16 1015.39 1014.52 1013.59 1012.63 1011.68 1010.77 1009.94 1009.21 1008.61 1008.13
1011.21 1011.06 1010.83 1010.57 1010.35 1010.22 1010.23 1010.40 1010.74 1011.25 1011.88 1012.60 1013.37 1014.12 1014.82 1015.45 1015.98 1016.41 1016.75 1017.02 1017.22 1017.39 1017.53 1017.66 1017.77 1017.85 1017.90 1017.89 1017.81 1017.62 1017.33 1016.91 1016.36 1015.70 1014.92 1014.05 1013.12 1012.16 1011.20 1010.29 1009.45 1008.72 1008.11 1007.62
1010.11 1010.01 1009.88 1009.75 1009.68 1009.70 1009.85 1010.12 1010.54 1011.08 1011.73 1012.43 1013.17 1013.90 1014.57 1015.19 1015.71 1016.16 1016.51 1016.79 1017.01 1017.19 1017.33 1017.44 1017.52 1017.57 1017.57 1017.52 1017.39 1017.17 1016.86 1016.43 1015.89 1015.23 1014.46 1013.61 1012.69 1011.72 1010.76 1009.83 1008.97 1008.21 1007.58 1007.07
1008.86 1008.84 1008.82 1008.86 1008.96 1009.16 1009.45 1009.85 1010.36 1010.95 1011.61 1012.31 1013.03 1013.73 1014.38 1014.98 1015.50 1015.95 1016.31 1016.60 1016.83 1016.99 1017.11 1017.19 1017.22 1017.22 1017.17 1017.06 1016.90 1016.66 1016.35 1015.93 1015.42 1014.79 1014.06 1013.24 1012.33 1011.37 1010.40 1009.44 1008.53 1007.72 1007.03 1006.47
1007.59 1007.65 1007.77 1007.98 1008.26 1008.64 1009.10 1009.63 1010.23 1010.88 1011.57 1012.27 1012.96 1013.64 1014.27 1014.85 1015.37 1015.81 1016.18 1016.47 1016.68 1016.82 1016.90 1016.92 1016.89 1016.81 1016.70 1016.55 1016.36 1016.12 1015.82 1015.44 1014.98 1014.42 1013.75 1012.97 1012.09 1011.14 1010.14 1009.14 1008.17 1007.28 1006.50 1005.87
1006.41 1006.56 1006.83 1007.19 1007.66 1008.21 1008.82 1009.47 1010.16 1010.87 1011.58 1012.28 1012.96 1013.62 1014.24 1014.81 1015.32 1015.75 1016.11 1016.39 1016.57 1016.67 1016.69 1016.64 1016.53 1016.38 1016.21 1016.01 1015.80 1015.56 1015.30 1014.98 1014.60 1014.12 1013.53 1012.82 1011.98 1011.04 1010.03 1008.98 1007.93 1006.95 1006.08 1005.35
1005.37 1005.63 1006.03 1006.55 1007.18 1007.87 1008.62 1009.38 1010.14 1010.89 1011.61 1012.31 1012.99 1013.63 1014.23 1014.79 1015.29 1015.72 1016.07 1016.32 1016.48 1016.53 1016.48 1016.36 1016.17 1015.95 1015.71 1015.48 1015.25 1015.03 1014.82 1014.58 1014.28 1013.90 1013.41 1012.78 1012.01 1011.10 1010.08 1008.99 1007.89 1006.82 1005.86 1005.04
1004.49 1004.85 1005.38 1006.04 1006.81 1007.63 1008.47 1009.31 1010.12 1010.90 1011.63 1012.32 1012.97 1013.59 1014.18 1014.73 1015.23 1015.66 1016.00 1016.24 1016.37 1016.38 1016.28 1016.09 1015.84 1015.55 1015.26 1014.99 1014.76 1014.56 1014.40 1014.24 1014.04 1013.77 1013.39 1012.86 1012.17 1011.31 1010.31 1009.22 1008.08 1006.96 1005.93 1005.04
1003.74 1004.21 1004.86 1005.64 1006.51 1007.43 1008.35 1009.24 1010.07 1010.85 1011.57 1012.24 1012.87 1013.48 1014.05 1014.60 1015.09 1015.53 1015.88 1016.12 1016.23 1016.22 1016.09 1015.85 1015.55 1015.21 1014.88 1014.58 1014.35 1014.18 1014.06 1013.97 1013.88 1013.72 1013.45 1013.03 1012.43 1011.66 1010.73 1009.67 1008.54 1007.42 1006.36 1005.44
1003.07 1003.65 1004.40 1005.28 1006.25 1007.23 1008.20 1009.12 1009.96 1010.73 1011.42 1012.07 1012.67 1013.25 1013.82 1014.36 1014.87 1015.31 1015.68 1015.93 1016.06 1016.05 1015.91 1015.65 1015.32 1014.96 1014.60 1014.29 1014.05 1013.90 1013.82 1013.79 1013.77 1013.71 1013.56 1013.26 1012.78 1012.12 1011.29 1010.32 1009.27 1008.19 1007.17 1006.27
1002.43 1003.10 1003.96 1004.93 1005.97 1007.01 1008.01 1008.94 1009.77 1010.52 1011.19 1011.80 1012.37 1012.93 1013.49 1014.03 1014.55 1015.02 1015.42 1015.70 1015.86 1015.87 1015.74 1015.50 1015.17 1014.80 1014.43 1014.11 1013.86 1013.72 1013.66 1013.67 1013.72 1013.74 1013.69 1013.50 1013.16 1012.64 1011.95 1011.11 1010.18 1009.22 1008.29 1007.47
1001.80 1002.57 1003.51 1004.56 1005.66 1006.75 1007.77 1008.71 1009.53 1010.25 1010.89 1011.47 1012.02 1012.56 1013.10 1013.65 1014.18 1014.68 1015.11 1015.44 1015.64 1015.70 1015.61 1015.39 1015.08 1014.72 1014.35 1014.02 1013.77 1013.62 1013.57 1013.60 1013.68 1013.76 1013.79 1013.72 1013.51 1013.14 1012.62 1011.96 1011.20 1010.39 1009.61 1008.90
1001.21 1002.06 1003.08 1004.19 1005.34 1006.46 1007.51 1008.45 1009.27 1009.97 1010.59 1011.15 1011.67 1012.19 1012.73 1013.27 1013.82 1014.34 1014.80 1015.17 1015.42 1015.53 1015.49 1015.32 1015.05 1014.71 1014.35 1014.02 1013.76 1013.59 1013.52 1013.55 1013.63 1013.74 1013.84 1013.85 1013.77 1013.55 1013.20 1012.73 1012.17 1011.56 1010.95 1010.39
1000.72 1001.62 1002.69 1003.85 1005.04 1006.19 1007.25 1008.20 1009.02 1009.72 1010.33 1010.86 1011.37 1011.88 1012.40 1012.94 1013.49 1014.02 1014.51 1014.92 1015.21 1015.37 1015.38 1015.26 1015.03 1014.72 1014.37 1014.05 1013.77 1013.58 1013.48 1013.48 1013.55 1013.67 1013.79 1013.88 1013.89 1013.81 1013.62 1013.33 1012.97 1012.56 1012.14 1011.74
1000.39 1001.33 1002.42 1003.60 1004.80 1005.96 1007.03 1007.99 1008.81 1009.52 1010.12 1010.65 1011.15 1011.64 1012.14 1012.67 1013.21 1013.74 1014.24 1014.67 1014.99 1015.19 1015.25 1015.17 1014.99 1014.71 1014.39 1014.07 1013.78 1013.57 1013.44 1013.40 1013.44 1013.54 1013.67 1013.79 1013.87 1013.89 1013.84 1013.71 1013.52 1013.29 1013.04 1012.80
1000.30 1001.21 1002.29 1003.45 1004.64 1005.80 1006.86 1007.82 1008.65 1009.36 1009.96 1010.49 1010.98 1011.47 1011.96 1012.46 1012.98 1013.50 1013.99 1014.42 1014.75 1014.97 1015.07 1015.04 1014.89 1014.66 1014.37 1014.06 1013.78 1013.54 1013.38 1013.30 1013.30 1013.37 1013.48 1013.61 1013.72 1013.81 1013.85 1013.85 1013.79 1013.70 1013.59 1013.49
1000.45 1001.30 1002.32 1003.43 1004.57 1005.69 1006.73 1007.68 1008.50 1009.21 1009.82 1010.36 1010.85 1011.32 1011.80 1012.28 1012.77 1013.26 1013.73 1014.14 1014.47 1014.71 1014.83 1014.84 1014.73 1014.54 1014.29 1014.01 1013.74 1013.50 1013.32 1013.21 1013.17 1013.20 1013.28 1013.39 1013.51 1013.63 1013.72 1013.78 1013.82 1013.83 1013.82 1013.81
1000.81 1001.57 1002.49 1003.50 1004.56 1005.61 1006.61 1007.53 1008.34 1009.05 1009.66 1010.21 1010.70 1011.16 1011.62 1012.08 1012.54 1013.00 1013.43 1013.82 1014.14 1014.37 1014.52 1014.55 1014.49 1014.35 1014.15 1013.91 1013.67 1013.45 1013.27 1013.14 1013.08 1013.07 1013.12 1013.20 1013.30 1013.41 1013.52 1013.61 1013.69 1013.75 1013.80 1013.84
1001.31 1001.95 1002.73 1003.63 1004.57 1005.53 1006.46 1007.33 1008.11 1008.81 1009.43 1009.98 1010.48 1010.94 1011.39 1011.83 1012.26 1012.68 1013.08 1013.44 1013.74 1013.97 1014.13 1014.19 1014.18 1014.09 1013.95 1013.77 1013.57 1013.39 1013.23 1013.11 1013.04 1013.01 1013.03 1013.08 1013.15 1013.23 1013.32 1013.41 1013.49 1013.57 1013.63 1013.70
1001.85 1002.35 1002.99 1003.74 1004.56 1005.41 1006.25 1007.05 1007.80 1008.48 1009.10 1009.65 1010.16 1010.63 1011.08 1011.50 1011.91 1012.30 1012.67 1013.01 1013.29 1013.52 1013.68 1013.78 1013.81 1013.77 1013.69 1013.58 1013.45 1013.32 1013.21 1013.12 1013.06 1013.02 1013.02 1013.05 1013.09 1013.14 1013.20 1013.26 1013.32 1013.38 1013.44 1013.50
1002.33 1002.69 1003.19 1003.80 1004.48 1005.21 1005.95 1006.69 1007.39 1008.05 1008.66 1009.23 1009.75 1010.23 1010.68 1011.10 1011.50 1011.88 1012.23 1012.54 1012.81 1013.03 1013.20 1013.32 1013.39 1013.41 1013.40 1013.35 1013.29 1013.23 1013.17 1013.13 1013.09 1013.08 1013.08 1013.09 1013.11 1013.14 1013.16 1013.19 1013.23 1013.26 1013.30 1013.35
Thickness
5712 5721 5724 5723 5725 5727 5719 5710 5700 5705 5707 5713 5719 5722 5723 5724 5724 5725 5724 5724 5724 5723 5723 5723 5723 5722 5722 5721 5720 5720 5718 5716 5715 5715 5714 5713 5712 5712 5710 5708 5707 5706 5707 5706
5704 5716 5717 5716 5721 5724 5722 5720 5713 5710 5706 5719 5721 5721 5719 5718 5718 5717 5717 5718 5718 5718 5717 5717 5717 5717 5716 5715 5714 5714 5712 5710 5709 5708 5707 5707 5706 5704 5703 5702 5700 5699 5699 5700
5683 5700 5704 5695 5711 5716 5716 5719 5714 5704 5708 5714 5712 5713 5712 5713 5713 5712 5712 5712 5711 5711 5711 5710 5711 5712 5710 5709 5708 5706 5705 5704 5702 5701 5700 5699 5700 5697 5695 5695 5694 5692 5692 5692
5673 5682 5673 5691 5717 5721 5713 5712 5715 5714 5712 5712 5710 5709 5709 5710 5708 5706 5706 5705 5705 5705 5704 5704 5704 5704 5704 5702 5701 5699 5697 5697 5696 5695 5693 5693 5691 5689 5689 5688 5687 5687 5686 5686
5661 5663 5673 5694 5708 5710 5702 5695 5706 5705 5705 5704 5705 5701 5698 5704 5705 5703 5701 5700 5699 5699 5698 5698 5697 5697 5696 5694 5693 5691 5690 5689 5689 5688 5686 5685 5684 5683 5683 5682 5680 5679 5679 5679
5659 5659 5659 5681 5706 5714 5701 5680 5698 5700 5697 5696 5695 5680 5683 5696 5698 5696 5694 5693 5692 5692 5691 5690 5690 5690 5687 5685 5684 5683 5683 5683 5683 5682 5680 5678 5677 5677 5677 5675 5674 5673 5672 5671
5654 5653 5664 5689 5704 5705 5675 5675 5693 5695 5694 5691 5686 5684 5687 5690 5690 5689 5687 5686 5685 5683 5682 5682 5683 5682 5679 5678 5677 5678 5678 5677 5676 5675 5674 5672 5671 5671 5670 5669 5667 5666 5664 5664
5648 5645 5655 5686 5690 5680 5678 5688 5690 5689 5689 5687 5684 5684 5683 5682 5681 5680 5679 5678 5677 5674 5673 5674 5674 5673 5671 5669 5671 5672 5670 5669 5668 5667 5667 5667 5664 5663 5663 5662 5659 5657 5656 5656
5652 5653 5669 5678 5679 5683 5685 5683 5685 5683 5683 5682 5679 5676 5675 5674 5673 5673 5672 5670 5669 5667 5665 5666 5666 5666 5663 5663 5664 5664 5662 5660 5660 5660 5659 5658 5656 5655 5654 5653 5651 5650 5649 5648
5653 5661 5668 5673 5676 5678 5681 5680 5681 5681 5678 5676 5671 5670 5668 5666 5665 5665 5664 5662 5661 5659 5658 5657 5658 5659 5658 5658 5657 5655 5653 5651 5651 5650 5650 5650 5649 5648 5647 5646 5645 5644 5643 5642
5649 5657 5661 5666 5668 5671 5673 5675 5674 5674 5672 5669 5666 5664 5662 5660 5659 5658 5657 5656 5654 5652 5650 5650 5651 5651 5652 5651 5650 5647 5646 5644 5643 5642 5642 5641 5640 5640 5640 5641 5640 5639 5638 5637
5642 5652 5651 5655 5663 5667 5666 5665 5666 5665 5663 5662 5661 5658 5656 5654 5652 5651 5650 5648 5646 5645 5644 5644 5644 5644 5644 5645 5644 5641 5639 5638 5637 5635 5635 5634 5633 5632 5633 5633 5634 5634 5633 5632
5650 5655 5654 5658 5660 5662 5660 5660 5661 5660 5658 5655 5653 5653 5651 5647 5646 5644 5643 5641 5639 5638 5638 5638 5638 5638 5639 5639 5638 5636 5634 5632 5630 5629 5628 5627 5626 5624 5623 5623 5624 5625 5625 5625
5650 5649 5647 5650 5651 5655 5655 5655 5655 5654 5652 5650 5647 5646 5644 5641 5639 5637 5635 5634 5634 5633 5632 5632 5632 5632 5634 5633 5632 5630 5628 5627 5626 5624 5622 5621 5620 5618 5616 5615 5613 5613 5614 5615
5644 5644 5642 5645 5647 5647 5647 5647 5645 5643 5643 5641 5639 5636 5635 5633 5631 5630 5630 5629 5627 5626 5626 5626 5626 5626 5628 5627 5625 5623 5622 5620 5619 5618 5617 5615 5613 5612 5610 5608 5607 5606 5605 5606
5638 5638 5638 5637 5637 5639 5639 5638 5636 5635 5634 5632 5630 5629 5628 5627 5626 5625 5624 5623 5621 5619 5620 5620 5620 5621 5621 5620 5619 5617 5615 5615 5614 5611 5610 5608 5607 5605 5603 5601 5600 5599 5598 5597
5628 5627 5628 5628 5630 5631 5632 5633 5632 5630 5628 5626 5624 5623 5622 5621 5619 5618 5617 5617 5616 5615 5615 5614 5614 5615 5614 5613 5611 5610 5608 5608 5607 5604 5602 5601 5600 5598 5597 5595 5594 5593 5592 5591
5629 5628 5628 5627 5626 5625 5625 5626 5626 5624 5622 5621 5620 5617 5615 5614 5612 5611 5612 5612 5611 5609 5610 5609 5609 5608 5607 5606 5605 5603 5601 5600 5599 5597 5595 5594 5593 5592 5591 5589 5588 5587 5586 5585
5623 5623 5623 5624 5623 5622 5620 5619 5618 5617 5616 5615 5613 5610 5609 5608 5607 5606 5606 5605 5603 5602 5603 5604 5603 5602 5601 5599 5599 5596 5595 5593 5592 5590 5589 5588 5587 5586 5584 5583 5582 5581 5580 5579
5617 5617 5617 5617 5617 5616 5614 5614 5612 5611 5610 5608 5606 5605 5603 5602 5601 5601 5600 5599 5599 5599 5600 5599 5597 5596 5594 5593 5592 5589 5588 5587 5585 5583 5582 5580 5579 5578 5578 5577 5577 5576 5575 5573
5609 5610 5610 5610 5610 5610 5609 5608 5606 5604 5603 5603 5601 5599 5598 5597 5597 5596 5594 5593 5594 5595 5594 5593 5592 5590 5589 5587 5585 5583 5581 5580 5578 5576 5575 5573 5572 5571 5571 5571 5570 5570 5569 5568
5603 5604 5604 5604 5603 5602 5602 5601 5600 5599 5597 5596 5595 5594 5593 5592 5591 5590 5590 5589 5590 5590 5589 5587 5586 5585 5583 5581 5579 5577 5575 5574 5572 5570 5568 5567 5565 5564 5564 5564 5563 5563 5563 5562
5596 5597 5597 5597 5596 5595 5595 5594 5594 5593 5592 5590 5589 5589 5588 5586 5586 5584 5583 5584 5585 5584 5583 5582 5580 5579 5577 5575 5573 5571 5570 5568 5566 5565 5563 5562 5561 5559 5558 5558 5557 5556 5556 5555
5590 5591 5591 5591 5591 5589 5587 5587 5588 5587 5586 5585 5585 5584 5584 5582 5581 5581 5581 5581 5580 5579 5577 5575 5574 5572 5570 5568 5566 5565 5564 5562 5560 5559 5558 5557 5555 5554 5553 5552 5551 5550 5549 5548
5585 5585 5585 5584 5583 5583 5582 5582 5581 5580 5579 5578 5578 5579 5579 5579 5577 5576 5576 5576 5574 5572 5570 5568 5567 5565 5563 5561 5560 5558 5557 5556 5555 5554 5552 5551 5549 5548 5547 5546 5545 5544 5543 5542
5578 5579 5579 5579 5579 5578 5578 5577 5575 5574 5573 5572 5572 5572 5573 5573 5573 5571 5570 5570 5568 5566 5563 5561 5560 5558 5556 5555 5553 5552 5551 5551 5549 5548 5546 5545 5544 5542 5541 5540 5539 5538 5537 5535
5572 5573 5573 5573 5574 5575 5574 5572 5570 5569 5569 5568 5567 5567 5567 5567 5566 5565 5564 5563 5561 5559 5557 5556 5554 5552 5551 5549 5548 5546 5545 5544 5543 5541 5539 5538 5536 5535 5534 5533 5532 5531 5530 5529